Other Surface Observations
Issued by NWS

Home | Current Version | Previous Version | Text Only | Print | Product List | Glossary On
Versions: 1 2 3 4 5 6 7 8 9 10 11 12 13 14 15 16 17 18 19 20 21 22 23 24 25 26 27 28 29 30 31 32 33 34 35 36 37 38 39 40 41 42 43 44 45 46 47 48 49 50
000
SXUS52 KTAE 301218
OSOTAE
OSOTAE
North Florida/South Alabama/Southwest Georgia Weather Roundup
National Weather Service Tallahassee Florida
800 AM EDT SUN AUG 30 2015

Note: "fair" indicates few or no clouds below 12,000 feet with no
significant weather and/or obstructions to visibility.

!FLZ017-115-028-034-025-301300
...North Florida...

CITY           SKY/WX    TMP DP  RH WIND       PRES   REMARKS
TALLAHASSEE    CLOUDY    74  72  93 NE3       30.05R
APALACHICOLA   CLEAR     70  70 100 NE6       30.02R
PERRY          FOG      N/A N/A N/A CALM      30.05S VSB 3/4
CROSS CITY       N/A     74  72  93 NE3       30.02F
JACKSONVILLE   PTSUNNY   75  73  93 NE3       30.03S
$$

!FLZ112-006-005-002-011-301300
...Florida Panhandle...

CITY           SKY/WX    TMP DP  RH WIND       PRES   REMARKS
MARIANNA       FOG       70  70 100 CALM      30.04R VSB 1/4
BONIFAY        FOG       68  67  96 CALM      30.06R VSB 1/2
PANAMA CITY NW FOG       69  68  96 CALM      30.03R VSB 1/4
TYNDALL AFB    CLEAR     71  70  98 NE5       30.04R
TYND DRONE APT PTSUNNY   71  71 100 NE7       30.04R
DE FUNIAK SPR  FAIR      68  68 100 E3        30.05S FOG
EGLIN AFB      PTCLDY    69  67  94 N3        30.03S
DESTIN         CLEAR     74  72  93 CALM      30.03S
HURLBURT       CLEAR     69  66  91 NE3       30.02S
CRESTVIEW      PTCLDY    66  66 100 CALM      30.06R
PENSACOLA      CLEAR     71  69  93 NE7       30.03R
$$

!ALZ063-066-301300
...South Alabama...

CITY           SKY/WX    TMP DP  RH WIND       PRES   REMARKS
DOTHAN         FOG       68  68 100 CALM      30.08S VSB 1/4
OZARK CAIRNS     N/A     67  67 100 N1        30.05R
FT RUCKER HELI FOG       68  67  96 CALM      30.04S VSB<1/4
RUCKER HELI 3  FOG       68  66  94 N2        30.07R VSB 3/16
RUCKER HELI 2  NOT AVBL
FLORALA APT    FOG       65  64  97 CALM      30.07R VSB 1/2
ANDALUSIA      FOG       71  67  87 CALM      30.05R VSB 1/4
TROY           FOG       68  68 100 CALM      30.07R VSB 1/4
EUFALA         CLOUDY    72  71  97 CALM      30.05R
MOBILE         CLOUDY    72  70  93 CALM      30.04S
$$

!GAZ120>161-301300
...Southwest and South Central Georgia...

CITY           SKY/WX    TMP DP  RH WIND       PRES   REMARKS
THOMASVILLE    FAIR      70  70 100 E3        30.07R
BAINBRIDGE     CLOUDY    72  72 100 CALM      30.06R
MOODY AFB      CLOUDY    72  71  96 E2        30.05S
VALDOSTA       PTSUNNY   73  73 100 CALM      30.06S
MOULTRIE       CLOUDY    72  72 100 E5        30.07R FOG
BLAKELY        CLOUDY    73  72  94 CALM      30.06R
ALBANY         CLOUDY    73  71  93 CALM      30.07R
TIFTON         CLOUDY    73  73  99 SE5       30.07R FOG
FITZGERALD     CLOUDY    74  73  96 E5        30.10R FOG
CORDELE        CLOUDY    75  74  98 NE3       30.08R
AMERICUS       CLOUDY    70  70 100 CALM      30.09R
HOMERVILLE     FAIR      73  73 100 CALM      30.07S
$$

!GMZ750-755-770-775-301300
...Coastal and Buoy Obs...

STATION/POSITION TIME  TEMP    WIND        PRES    VSBY  WAVE
                       AIR SEA DIR/SP/G                  HT/PER
                 (UTC) (F)     (DEG/KT/KT) (MB)    (MI)  (FT/S)
KEATON BEACH     1200   73      40/  2/  3 1017.2S
CEDAR KEY        1200   76      80/  7/  8 1016.9R
C TOWER          1200   81      40/  7/  8 1016.4R
APALACHICOLA BUO 1150   83 85  110/ 12/ 14 1015.8R         2/ 5
PANAMA CITY BUOY 1150   82 85   70/  6/  6 1016.5R         1/ 5
MOBILE BUOY      1150   82 85  130/  4/  6 1016.8R         1/ 5
ORANGE BCH AL BU 1150   82 85  130/  4/  6 1015.9R         2/ 4
$$



USA.gov is the U.S. government's official web portal to all federal, state and local government web resources and services.